| time (UTC) | temp F | wind direction | speed knots | gust knots | rain 1hr in | rain 24hr in | rain mn in | humidity % | barometer mb |
| 20260508045959 | 49 | 80 | 1.7 | 3.5 | 0.00 | 0.00 | 0.00 | 86 | 1012.6 |
| 20260508044959 | 49 | 74 | 0.0 | 1.7 | 0.00 | 0.00 | 0.00 | 86 | 1012.7 |
| 20260508044459 | 49 | 74 | 0.0 | 1.7 | 0.00 | 0.00 | 0.00 | 86 | 1012.7 |
| 20260508043459 | 48 | 74 | 0.9 | 2.6 | 0.00 | 0.00 | 0.00 | 86 | 1012.6 |
| 20260508042959 | 49 | 74 | 0.9 | 2.6 | 0.00 | 0.00 | 0.00 | 86 | 1012.6 |
| 20260508042500 | 49 | 115 | 0.0 | 0.0 | 0.00 | 0.00 | 0.00 | 86 | 1012.6 |
| 20260508042000 | 49 | 115 | 0.0 | 1.7 | 0.00 | 0.00 | 0.00 | 86 | 1012.6 |
| 20260508041458 | 49 | 115 | 0.0 | 1.7 | 0.00 | 0.00 | 0.00 | 86 | 1012.6 |
| 20260508040459 | 49 | 132 | 1.7 | 3.5 | 0.00 | 0.00 | 0.00 | 85 | 1012.6 |
| 20260508040000 | 48 | 96 | 0.0 | 0.0 | 0.00 | 0.00 | 0.00 | 85 | 1012.6 |
| 20260508035459 | 49 | 96 | 0.0 | 0.0 | 0.00 | 0.00 | 0.00 | 85 | 1012.6 |
| 20260508034959 | 49 | 96 | 0.0 | 0.0 | 0.00 | 0.00 | 0.00 | 85 | 1012.6 |
| 20260508034459 | 49 | 96 | 0.0 | 0.0 | 0.00 | 0.00 | 0.00 | 85 | 1012.6 |
| 20260508033459 | 49 | 96 | 0.0 | 0.0 | 0.00 | 0.00 | 0.00 | 85 | 1012.5 |
| 20260508032958 | 49 | 96 | 0.0 | 0.0 | 0.00 | 0.00 | 0.00 | 85 | 1012.4 |
| 20260508032459 | 49 | 96 | 0.0 | 0.0 | 0.00 | 0.00 | 0.00 | 85 | 1012.4 |
| 20260508031500 | 49 | 96 | 0.0 | 0.0 | 0.00 | 0.00 | 0.00 | 85 | 1012.4 |
| 20260508030959 | 49 | 96 | 0.0 | 0.0 | 0.00 | 0.00 | 0.00 | 85 | 1012.6 |
| 20260508030459 | 49 | 96 | 0.0 | 0.0 | 0.00 | 0.00 | 0.00 | 85 | 1012.6 |
| 20260508025458 | 49 | 96 | 0.0 | 0.0 | 0.00 | 0.00 | 0.00 | 85 | 1012.7 |
| 20260508024959 | 49 | 96 | 0.0 | 0.0 | 0.00 | 0.00 | 0.00 | 85 | 1012.7 |
| 20260508024000 | 49 | 96 | 0.0 | 0.0 | 0.00 | 0.00 | 0.00 | 85 | 1012.6 |
| 20260508022958 | 49 | 96 | 0.0 | 0.0 | 0.00 | 0.00 | 0.00 | 85 | 1012.7 |
| 20260508022459 | 49 | 96 | 0.0 | 0.9 | 0.00 | 0.00 | 0.00 | 85 | 1012.6 |
| 20260508021958 | 49 | 96 | 0.0 | 0.9 | 0.00 | 0.00 | 0.00 | 85 | 1012.6 |
| 20260508021459 | 49 | 96 | 0.0 | 0.9 | 0.00 | 0.00 | 0.00 | 85 | 1012.7 |
| 20260508020958 | 50 | 96 | 0.9 | 0.9 | 0.00 | 0.00 | 0.00 | 85 | 1012.8 |
| 20260508020500 | 50 | 96 | 0.0 | 1.7 | 0.00 | 0.00 | 0.00 | 85 | 1012.8 |
| 20260508020000 | 49 | 96 | 0.0 | 1.7 | 0.00 | 0.00 | 0.00 | 84 | 1012.8 |
| 20260508015458 | 49 | 102 | 0.0 | 1.7 | 0.00 | 0.00 | 0.00 | 84 | 1012.8 |
| 20260508013959 | 50 | 42 | 0.0 | 0.0 | 0.00 | 0.00 | 0.00 | 84 | 1012.7 |
| 20260508013458 | 49 | 9 | 0.0 | 0.0 | 0.00 | 0.00 | 0.00 | 84 | 1012.7 |
| 20260508012958 | 49 | 9 | 0.0 | 0.0 | 0.00 | 0.00 | 0.00 | 84 | 1012.8 |
| 20260508012458 | 49 | 9 | 0.0 | 0.0 | 0.00 | 0.00 | 0.00 | 84 | 1012.8 |
| 20260508011458 | 49 | 9 | 0.0 | 0.0 | 0.00 | 0.00 | 0.00 | 84 | 1012.7 |
| 20260508010959 | 50 | 9 | 0.0 | 0.0 | 0.00 | 0.00 | 0.00 | 84 | 1012.8 |
| 20260508005958 | 50 | 9 | 0.0 | 0.0 | 0.00 | 0.00 | 0.00 | 84 | 1012.8 |
| 20260508005000 | 50 | 9 | 0.0 | 0.0 | 0.00 | 0.00 | 0.00 | 83 | 1013.0 |
| 20260508004000 | 50 | 9 | 0.0 | 0.0 | 0.00 | 0.00 | 0.00 | 83 | 1013.0 |
| 20260508002958 | 50 | 9 | 0.0 | 1.7 | 0.00 | 0.00 | 0.00 | 83 | 1013.0 |
| 20260508002001 | 49 | 9 | 0.9 | 1.7 | 0.00 | 0.00 | 0.00 | 83 | 1013.1 |
| 20260508001458 | 49 | 103 | 0.9 | 1.7 | 0.00 | 0.00 | 0.00 | 83 | 1013.2 |
| 20260508001001 | 49 | 104 | 0.0 | 1.7 | 0.00 | 0.00 | 0.00 | 83 | 1013.2 |
| 20260508000459 | 49 | 104 | 0.9 | 1.7 | 0.00 | 0.00 | 0.00 | 82 | 1013.1 |
| 20260508000001 | 49 | 104 | 0.0 | 1.7 | 0.00 | 0.00 | 0.00 | 82 | 1013.1 |
| 20260507234959 | 49 | 127 | 0.9 | 0.9 | 0.00 | 0.00 | 0.00 | 82 | 1013.1 |
| 20260507234500 | 49 | 127 | 0.9 | 1.7 | 0.00 | 0.00 | 0.00 | 82 | 1013.1 |
| 20260507233959 | 50 | 127 | 0.0 | 1.7 | 0.00 | 0.00 | 0.00 | 82 | 1013.1 |
| 20260507233500 | 50 | 138 | 0.0 | 0.0 | 0.00 | 0.00 | 0.00 | 82 | 1013.1 |
| 20260507233001 | 50 | 138 | 0.0 | 0.0 | 0.00 | 0.00 | 0.00 | 82 | 1013.2 |
| 20260507232500 | 49 | 138 | 0.0 | 0.0 | 0.00 | 0.00 | 0.00 | 81 | 1013.2 |
| 20260507232001 | 50 | 138 | 0.0 | 0.0 | 0.00 | 0.00 | 0.00 | 82 | 1013.2 |
| 20260507231500 | 50 | 138 | 0.0 | 0.0 | 0.00 | 0.00 | 0.00 | 82 | 1013.2 |
| 20260507231000 | 50 | 138 | 0.0 | 0.0 | 0.00 | 0.00 | 0.00 | 82 | 1013.2 |
| 20260507230500 | 50 | 138 | 0.0 | 0.0 | 0.00 | 0.00 | 0.00 | 81 | 1013.2 |
| 20260507230004 | 50 | 138 | 0.0 | 0.0 | 0.00 | 0.00 | 0.00 | 81 | 1013.2 |
| 20260507225459 | 50 | 138 | 0.0 | 0.0 | 0.00 | 0.00 | 0.00 | 81 | 1013.3 |
| 20260507224959 | 50 | 138 | 0.0 | 0.0 | 0.00 | 0.00 | 0.00 | 80 | 1013.3 |
| 20260507224459 | 49 | 138 | 0.0 | 0.0 | 0.00 | 0.00 | 0.00 | 80 | 1013.3 |
| 20260507224000 | 49 | 138 | 0.0 | 0.0 | 0.00 | 0.00 | 0.00 | 80 | 1013.3 |
| 20260507223458 | 50 | 138 | 0.0 | 0.0 | 0.00 | 0.00 | 0.00 | 80 | 1013.3 |
| 20260507222459 | 50 | 138 | 0.0 | 0.0 | 0.00 | 0.00 | 0.00 | 80 | 1013.3 |
| 20260507221958 | 50 | 138 | 0.0 | 1.7 | 0.00 | 0.00 | 0.00 | 80 | 1013.3 |
| 20260507221459 | 50 | 138 | 0.0 | 1.7 | 0.00 | 0.00 | 0.00 | 80 | 1013.3 |
| 20260507221000 | 50 | 151 | 0.0 | 0.9 | 0.00 | 0.00 | 0.00 | 80 | 1013.3 |
| 20260507220458 | 50 | 151 | 0.0 | 1.7 | 0.00 | 0.00 | 0.00 | 79 | 1013.3 |
| 20260507220000 | 50 | 151 | 0.0 | 1.7 | 0.00 | 0.00 | 0.00 | 79 | 1013.4 |
| 20260507214959 | 50 | 169 | 0.9 | 1.7 | 0.00 | 0.00 | 0.00 | 79 | 1013.5 |
| 20260507214458 | 50 | 169 | 0.0 | 0.0 | 0.00 | 0.00 | 0.00 | 79 | 1013.4 |
| 20260507213958 | 50 | 169 | 0.0 | 0.0 | 0.00 | 0.00 | 0.00 | 79 | 1013.4 |
| 20260507213459 | 50 | 169 | 0.0 | 0.0 | 0.00 | 0.00 | 0.00 | 78 | 1013.3 |
| 20260507212958 | 51 | 169 | 0.0 | 0.0 | 0.00 | 0.00 | 0.00 | 78 | 1013.3 |
| 20260507212459 | 51 | 169 | 0.0 | 0.0 | 0.00 | 0.00 | 0.00 | 78 | 1013.3 |
| 20260507211959 | 51 | 169 | 0.0 | 0.9 | 0.00 | 0.00 | 0.00 | 78 | 1013.3 |
| 20260507211458 | 51 | 169 | 0.0 | 0.9 | 0.00 | 0.00 | 0.00 | 78 | 1013.3 |
| 20260507210958 | 51 | 169 | 0.0 | 0.0 | 0.00 | 0.00 | 0.00 | 78 | 1013.2 |
| 20260507210458 | 51 | 169 | 0.0 | 0.0 | 0.00 | 0.00 | 0.00 | 78 | 1013.2 |
| 20260507205000 | 52 | 169 | 0.0 | 0.0 | 0.00 | 0.00 | 0.00 | 77 | 1013.2 |
| 20260507204458 | 52 | 169 | 0.0 | 0.0 | 0.00 | 0.00 | 0.00 | 77 | 1013.2 |
| 20260507203958 | 52 | 169 | 0.0 | 0.0 | 0.00 | 0.00 | 0.00 | 77 | 1013.1 |
| 20260507203458 | 52 | 169 | 0.0 | 1.7 | 0.00 | 0.00 | 0.00 | 76 | 1013.0 |
| 20260507202958 | 52 | 169 | 0.0 | 1.7 | 0.00 | 0.00 | 0.00 | 76 | 1012.9 |
| 20260507202459 | 52 | 160 | 0.0 | 2.6 | 0.00 | 0.00 | 0.00 | 76 | 1012.8 |
| 20260507202000 | 52 | 156 | 0.9 | 2.6 | 0.00 | 0.00 | 0.00 | 75 | 1012.8 |
| 20260507201459 | 53 | 171 | 0.0 | 1.7 | 0.00 | 0.00 | 0.00 | 75 | 1012.8 |
| 20260507200459 | 53 | 169 | 0.0 | 2.6 | 0.00 | 0.00 | 0.00 | 74 | 1012.7 |
| 20260507200000 | 53 | 169 | 0.0 | 2.6 | 0.00 | 0.00 | 0.00 | 74 | 1012.6 |
| 20260507195457 | 53 | 190 | 0.9 | 2.6 | 0.00 | 0.00 | 0.00 | 74 | 1012.6 |
| 20260507194500 | 54 | 184 | 0.9 | 4.3 | 0.00 | 0.00 | 0.00 | 73 | 1012.6 |
| 20260507193958 | 54 | 190 | 2.6 | 5.2 | 0.00 | 0.00 | 0.00 | 73 | 1012.5 |
| 20260507192958 | 54 | 175 | 2.6 | 4.3 | 0.00 | 0.00 | 0.00 | 73 | 1012.5 |
| 20260507192458 | 54 | 192 | 1.7 | 4.3 | 0.00 | 0.00 | 0.00 | 72 | 1012.5 |
| 20260507191501 | 54 | 160 | 3.5 | 5.2 | 0.00 | 0.00 | 0.00 | 72 | 1012.5 |
| 20260507190959 | 55 | 167 | 3.5 | 5.2 | 0.00 | 0.00 | 0.00 | 71 | 1012.4 |
| 20260507190459 | 55 | 178 | 2.6 | 7.0 | 0.00 | 0.00 | 0.00 | 71 | 1012.5 |
| 20260507185959 | 55 | 164 | 5.2 | 6.1 | 0.00 | 0.00 | 0.00 | 70 | 1012.3 |
| 20260507184958 | 56 | 152 | 2.6 | 6.1 | 0.00 | 0.00 | 0.00 | 68 | 1012.3 |
| 20260507184459 | 56 | 170 | 6.1 | 6.1 | 0.00 | 0.00 | 0.00 | 67 | 1012.4 |
| 20260507183458 | 57 | 208 | 1.7 | 3.5 | 0.00 | 0.00 | 0.00 | 65 | 1012.3 |
| 20260507182958 | 57 | 199 | 0.9 | 3.5 | 0.00 | 0.00 | 0.00 | 65 | 1012.2 |
| 20260507182459 | 57 | 227 | 2.6 | 4.3 | 0.00 | 0.00 | 0.00 | 65 | 1012.1 |
| 20260507182000 | 58 | 240 | 1.7 | 4.3 | 0.00 | 0.00 | 0.00 | 65 | 1012.2 |
| 20260507181459 | 58 | 213 | 1.7 | 4.3 | 0.00 | 0.00 | 0.00 | 66 | 1012.2 |
| 20260507180959 | 58 | 201 | 2.6 | 3.5 | 0.00 | 0.00 | 0.00 | 67 | 1012.3 |
| 20260507180500 | 58 | 199 | 2.6 | 2.6 | 0.00 | 0.00 | 0.00 | 66 | 1012.3 |
| 20260507175500 | 58 | 205 | 1.7 | 3.5 | 0.00 | 0.00 | 0.00 | 66 | 1012.2 |
| 20260507175000 | 58 | 200 | 0.0 | 3.5 | 0.00 | 0.00 | 0.00 | 65 | 1012.3 |
| 20260507174501 | 59 | 159 | 0.9 | 3.5 | 0.00 | 0.00 | 0.00 | 65 | 1012.3 |
| 20260507174000 | 59 | 240 | 0.9 | 3.5 | 0.00 | 0.00 | 0.00 | 66 | 1012.3 |
| 20260507173459 | 59 | 215 | 2.6 | 4.3 | 0.00 | 0.00 | 0.00 | 66 | 1012.3 |
| 20260507172959 | 59 | 167 | 2.6 | 5.2 | 0.00 | 0.00 | 0.00 | 66 | 1012.3 |
| 20260507172500 | 59 | 218 | 0.9 | 5.2 | 0.00 | 0.00 | 0.00 | 67 | 1012.3 |
| 20260507172000 | 59 | 191 | 3.5 | 5.2 | 0.00 | 0.00 | 0.00 | 66 | 1012.2 |
| 20260507171459 | 59 | 285 | 2.6 | 3.5 | 0.00 | 0.00 | 0.00 | 66 | 1012.3 |
| 20260507171000 | 59 | 275 | 1.7 | 4.3 | 0.00 | 0.00 | 0.00 | 66 | 1012.3 |
| 20260507170459 | 59 | 253 | 1.7 | 4.3 | 0.00 | 0.00 | 0.00 | 66 | 1012.4 |
| 20260507170001 | 59 | 268 | 2.6 | 7.0 | 0.00 | 0.00 | 0.00 | 66 | 1012.4 |
| 20260507165500 | 59 | 332 | 2.6 | 7.0 | 0.00 | 0.00 | 0.00 | 66 | 1012.4 |
| 20260507165000 | 59 | 275 | 2.6 | 7.0 | 0.00 | 0.00 | 0.00 | 66 | 1012.3 |
| 20260507164459 | 59 | 219 | 2.6 | 7.0 | 0.00 | 0.00 | 0.00 | 66 | 1012.4 |
| 20260507163959 | 59 | 271 | 3.5 | 6.1 | 0.00 | 0.00 | 0.00 | 67 | 1012.3 |
| 20260507163500 | 59 | 267 | 3.5 | 7.0 | 0.00 | 0.00 | 0.00 | 66 | 1012.3 |
| 20260507163000 | 59 | 232 | 2.6 | 7.0 | 0.00 | 0.00 | 0.00 | 66 | 1012.3 |
| 20260507162459 | 59 | 235 | 2.6 | 7.0 | 0.00 | 0.00 | 0.00 | 67 | 1012.3 |
| 20260507162000 | 60 | 245 | 6.1 | 8.7 | 0.00 | 0.00 | 0.00 | 67 | 1012.3 |
| 20260507161000 | 60 | 284 | 7.8 | 8.7 | 0.00 | 0.00 | 0.00 | 67 | 1012.3 |
| 20260507160501 | 60 | 252 | 6.1 | 10.4 | 0.00 | 0.00 | 0.00 | 66 | 1012.3 |
| 20260507160001 | 60 | 245 | 3.5 | 10.4 | 0.00 | 0.00 | 0.00 | 66 | 1012.3 |
| 20260507155458 | 60 | 246 | 7.0 | 10.4 | 0.00 | 0.00 | 0.00 | 66 | 1012.3 |
| 20260507154958 | 60 | 242 | 4.3 | 10.4 | 0.00 | 0.00 | 0.00 | 65 | 1012.3 |
| 20260507154458 | 60 | 236 | 3.5 | 9.6 | 0.00 | 0.00 | 0.00 | 64 | 1012.4 |
| 20260507153958 | 61 | 235 | 6.1 | 9.6 | 0.00 | 0.00 | 0.00 | 65 | 1012.4 |
| 20260507153458 | 61 | 210 | 5.2 | 10.4 | 0.00 | 0.00 | 0.00 | 65 | 1012.4 |
| 20260507152959 | 61 | 231 | 5.2 | 8.7 | 0.00 | 0.00 | 0.00 | 64 | 1012.4 |
| 20260507152458 | 61 | 234 | 6.1 | 12.2 | 0.00 | 0.00 | 0.00 | 64 | 1012.4 |
| 20260507151959 | 61 | 187 | 5.2 | 12.2 | 0.00 | 0.00 | 0.00 | 63 | 1012.4 |
| 20260507151458 | 61 | 240 | 5.2 | 9.6 | 0.00 | 0.00 | 0.00 | 62 | 1012.5 |
| 20260507150958 | 61 | 234 | 3.5 | 12.2 | 0.00 | 0.00 | 0.00 | 62 | 1012.6 |
| 20260507150458 | 62 | 231 | 12.2 | 12.2 | 0.00 | 0.00 | 0.00 | 62 | 1012.5 |
| 20260507145459 | 62 | 223 | 3.5 | 9.6 | 0.00 | 0.00 | 0.00 | 62 | 1012.5 |
| 20260507144959 | 62 | 225 | 7.8 | 9.6 | 0.00 | 0.00 | 0.00 | 61 | 1012.6 |
| 20260507144500 | 62 | 221 | 7.0 | 8.7 | 0.00 | 0.00 | 0.00 | 60 | 1012.6 |
| 20260507143458 | 62 | 210 | 7.0 | 10.4 | 0.00 | 0.00 | 0.00 | 60 | 1012.6 |
| 20260507142959 | 62 | 260 | 5.2 | 9.6 | 0.00 | 0.00 | 0.00 | 62 | 1012.5 |
| 20260507142500 | 62 | 231 | 2.6 | 9.6 | 0.00 | 0.00 | 0.00 | 61 | 1012.6 |
| 20260507142001 | 62 | 231 | 6.1 | 10.4 | 0.00 | 0.00 | 0.00 | 60 | 1012.7 |
| 20260507141501 | 62 | 227 | 4.3 | 11.3 | 0.00 | 0.00 | 0.00 | 60 | 1012.8 |
| 20260507140959 | 62 | 205 | 4.3 | 9.6 | 0.00 | 0.00 | 0.00 | 59 | 1012.7 |
| 20260507140459 | 63 | 184 | 5.2 | 7.8 | 0.00 | 0.00 | 0.00 | 60 | 1012.7 |
| 20260507140001 | 62 | 252 | 7.0 | 9.6 | 0.00 | 0.00 | 0.00 | 62 | 1012.7 |
| 20260507135502 | 62 | 232 | 5.2 | 10.4 | 0.00 | 0.00 | 0.00 | 62 | 1012.8 |
| 20260507135000 | 61 | 210 | 1.7 | 10.4 | 0.00 | 0.00 | 0.00 | 62 | 1012.8 |
| 20260507134501 | 61 | 261 | 6.1 | 9.6 | 0.00 | 0.00 | 0.00 | 63 | 1012.8 |
| 20260507134001 | 61 | 238 | 1.7 | 13.0 | 0.00 | 0.00 | 0.00 | 64 | 1012.8 |
| 20260507133500 | 61 | 244 | 8.7 | 13.0 | 0.00 | 0.00 | 0.00 | 64 | 1013.0 |
| 20260507133000 | 60 | 271 | 6.1 | 12.2 | 0.00 | 0.00 | 0.00 | 64 | 1012.9 |
| 20260507132501 | 60 | 253 | 2.6 | 9.6 | 0.00 | 0.00 | 0.00 | 63 | 1012.9 |
| 20260507132000 | 60 | 261 | 7.0 | 10.4 | 0.00 | 0.00 | 0.00 | 63 | 1012.9 |
| 20260507131501 | 61 | 215 | 4.3 | 10.4 | 0.00 | 0.00 | 0.00 | 63 | 1012.9 |
| 20260507130959 | 61 | 217 | 4.3 | 9.6 | 0.00 | 0.00 | 0.00 | 64 | 1012.8 |
| 20260507130001 | 61 | 234 | 6.1 | 10.4 | 0.00 | 0.00 | 0.00 | 65 | 1012.8 |
| 20260507125501 | 61 | 236 | 6.1 | 10.4 | 0.00 | 0.00 | 0.00 | 64 | 1012.8 |
| 20260507125000 | 61 | 219 | 6.1 | 8.7 | 0.00 | 0.00 | 0.00 | 66 | 1012.8 |
| 20260507124459 | 61 | 214 | 4.3 | 8.7 | 0.00 | 0.00 | 0.00 | 66 | 1012.8 |
| 20260507123959 | 61 | 221 | 5.2 | 11.3 | 0.00 | 0.00 | 0.00 | 67 | 1012.8 |
| 20260507123459 | 60 | 227 | 4.3 | 12.2 | 0.00 | 0.00 | 0.00 | 67 | 1012.7 |
| 20260507121959 | 60 | 181 | 7.0 | 9.6 | 0.00 | 0.00 | 0.00 | 69 | 1012.9 |
| 20260507121500 | 60 | 184 | 8.7 | 10.4 | 0.00 | 0.00 | 0.00 | 68 | 1012.9 |
| 20260507121001 | 59 | 161 | 6.1 | 12.2 | 0.00 | 0.00 | 0.00 | 68 | 1012.8 |
| 20260507120500 | 59 | 228 | 6.1 | 10.4 | 0.00 | 0.00 | 0.00 | 68 | 1012.8 |
| 20260507120002 | 59 | 198 | 7.8 | 12.2 | 0.00 | 0.00 | 0.00 | 69 | 1012.8 |
| 20260507114958 | 59 | 179 | 6.1 | 10.4 | 0.00 | 0.00 | 0.00 | 69 | 1012.8 |
| 20260507114458 | 58 | 196 | 8.7 | 13.0 | 0.00 | 0.00 | 0.00 | 68 | 1012.8 |
| 20260507113958 | 58 | 165 | 10.4 | 10.4 | 0.00 | 0.00 | 0.00 | 69 | 1012.8 |
| 20260507113458 | 58 | 213 | 7.8 | 9.6 | 0.00 | 0.00 | 0.00 | 70 | 1012.7 |
| 20260507112959 | 58 | 223 | 4.3 | 10.4 | 0.00 | 0.00 | 0.00 | 70 | 1012.7 |
| 20260507112458 | 58 | 242 | 8.7 | 10.4 | 0.00 | 0.00 | 0.00 | 71 | 1012.7 |
| 20260507112001 | 58 | 192 | 7.0 | 12.2 | 0.00 | 0.00 | 0.00 | 71 | 1012.7 |
| 20260507111459 | 57 | 232 | 7.0 | 12.2 | 0.00 | 0.00 | 0.00 | 71 | 1012.7 |
| 20260507110958 | 57 | 169 | 5.2 | 10.4 | 0.00 | 0.00 | 0.00 | 72 | 1012.7 |
| 20260507110458 | 57 | 213 | 4.3 | 8.7 | 0.00 | 0.00 | 0.00 | 74 | 1012.7 |
| 20260507110001 | 56 | 183 | 4.3 | 10.4 | 0.00 | 0.00 | 0.00 | 75 | 1012.7 |
| 20260507105500 | 56 | 171 | 3.5 | 9.6 | 0.00 | 0.00 | 0.00 | 74 | 1012.7 |
| 20260507105001 | 56 | 173 | 7.8 | 10.4 | 0.00 | 0.00 | 0.00 | 74 | 1012.7 |
| 20260507104459 | 56 | 205 | 3.5 | 9.6 | 0.00 | 0.00 | 0.00 | 74 | 1012.8 |
| 20260507103959 | 56 | 187 | 4.3 | 12.2 | 0.00 | 0.00 | 0.00 | 74 | 1012.8 |
| 20260507103500 | 56 | 185 | 8.7 | 11.3 | 0.00 | 0.00 | 0.00 | 74 | 1012.8 |
| 20260507102959 | 56 | 181 | 4.3 | 10.4 | 0.00 | 0.00 | 0.00 | 74 | 1012.7 |
| 20260507102500 | 56 | 192 | 7.8 | 8.7 | 0.00 | 0.00 | 0.00 | 74 | 1012.7 |
| 20260507102000 | 56 | 158 | 9.6 | 10.4 | 0.00 | 0.00 | 0.00 | 74 | 1012.8 |
| 20260507101500 | 56 | 171 | 6.1 | 10.4 | 0.00 | 0.00 | 0.00 | 74 | 1012.7 |
| 20260507101000 | 56 | 149 | 4.3 | 13.0 | 0.00 | 0.00 | 0.00 | 73 | 1012.7 |
| 20260507100459 | 56 | 169 | 7.8 | 13.0 | 0.00 | 0.00 | 0.00 | 73 | 1012.7 |
| 20260507100001 | 56 | 214 | 4.3 | 12.2 | 0.00 | 0.00 | 0.00 | 73 | 1012.7 |
| 20260507094959 | 56 | 175 | 6.1 | 12.2 | 0.00 | 0.00 | 0.00 | 73 | 1012.7 |
| 20260507094458 | 57 | 149 | 7.0 | 14.8 | 0.00 | 0.00 | 0.00 | 72 | 1012.6 |
| 20260507093959 | 57 | 157 | 10.4 | 14.8 | 0.00 | 0.00 | 0.00 | 71 | 1012.6 |
| 20260507093500 | 57 | 192 | 6.1 | 13.9 | 0.00 | 0.00 | 0.00 | 70 | 1012.7 |
| 20260507093000 | 57 | 168 | 9.6 | 14.8 | 0.00 | 0.00 | 0.00 | 68 | 1012.7 |
| 20260507092459 | 57 | 177 | 6.1 | 13.0 | 0.00 | 0.00 | 0.00 | 69 | 1012.5 |
| 20260507092000 | 57 | 204 | 5.2 | 14.8 | 0.00 | 0.00 | 0.00 | 68 | 1012.6 |
| 20260507091459 | 58 | 167 | 10.4 | 14.8 | 0.00 | 0.00 | 0.00 | 67 | 1012.6 |
| 20260507090500 | 58 | 181 | 5.2 | 13.0 | 0.00 | 0.00 | 0.00 | 71 | 1012.5 |
| 20260507090001 | 58 | 205 | 8.7 | 14.8 | 0.00 | 0.00 | 0.00 | 71 | 1012.5 |
| 20260507085459 | 58 | 131 | 7.0 | 14.8 | 0.00 | 0.00 | 0.00 | 72 | 1012.5 |
| 20260507085000 | 57 | 117 | 7.0 | 13.9 | 0.00 | 0.00 | 0.00 | 73 | 1012.5 |
| 20260507084500 | 57 | 146 | 5.2 | 13.9 | 0.00 | 0.00 | 0.00 | 74 | 1012.5 |
| 20260507084001 | 56 | 139 | 8.7 | 13.9 | 0.00 | 0.00 | 0.00 | 76 | 1012.5 |
| 20260507083500 | 56 | 172 | 9.6 | 14.8 | 0.00 | 0.00 | 0.00 | 78 | 1012.4 |
| 20260507082959 | 54 | 175 | 7.0 | 14.8 | 0.00 | 0.00 | 0.00 | 78 | 1012.5 |
| 20260507082500 | 53 | 153 | 6.1 | 13.0 | 0.00 | 0.00 | 0.00 | 79 | 1012.4 |
| 20260507082000 | 53 | 201 | 5.2 | 13.9 | 0.00 | 0.00 | 0.00 | 80 | 1012.3 |
| 20260507081459 | 53 | 200 | 6.1 | 13.9 | 0.00 | 0.00 | 0.00 | 81 | 1012.3 |
| 20260507081000 | 53 | 170 | 4.3 | 9.6 | 0.00 | 0.00 | 0.00 | 82 | 1012.4 |
| 20260507080501 | 53 | 165 | 8.7 | 12.2 | 0.00 | 0.00 | 0.00 | 82 | 1012.4 |
| 20260507080003 | 53 | 184 | 6.1 | 12.2 | 0.00 | 0.00 | 0.00 | 83 | 1012.4 |
| 20260507075459 | 53 | 169 | 4.3 | 9.6 | 0.00 | 0.00 | 0.00 | 84 | 1012.4 |
| 20260507075000 | 53 | 165 | 7.8 | 12.2 | 0.00 | 0.00 | 0.00 | 84 | 1012.4 |
| 20260507074459 | 53 | 160 | 7.8 | 12.2 | 0.00 | 0.00 | 0.00 | 85 | 1012.3 |
| 20260507073959 | 53 | 182 | 6.1 | 10.4 | 0.00 | 0.00 | 0.00 | 85 | 1012.3 |
| 20260507073459 | 52 | 150 | 5.2 | 10.4 | 0.00 | 0.00 | 0.00 | 86 | 1012.4 |
| 20260507072959 | 52 | 157 | 8.7 | 10.4 | 0.00 | 0.00 | 0.00 | 86 | 1012.3 |
| 20260507072459 | 52 | 181 | 2.6 | 12.2 | 0.00 | 0.00 | 0.00 | 86 | 1012.2 |
| 20260507071959 | 52 | 194 | 7.0 | 10.4 | 0.00 | 0.00 | 0.00 | 86 | 1012.2 |
| 20260507071500 | 52 | 163 | 4.3 | 13.9 | 0.00 | 0.00 | 0.00 | 87 | 1012.2 |
| 20260507071000 | 52 | 178 | 7.8 | 13.9 | 0.00 | 0.00 | 0.00 | 88 | 1012.2 |
| 20260507070500 | 52 | 182 | 1.7 | 13.0 | 0.00 | 0.00 | 0.00 | 88 | 1012.2 |
| 20260507065959 | 51 | 132 | 4.3 | 13.0 | 0.00 | 0.00 | 0.00 | 88 | 1012.2 |
| 20260507065458 | 51 | 158 | 6.1 | 8.7 | 0.00 | 0.00 | 0.00 | 88 | 1012.2 |
| 20260507064459 | 50 | 188 | 4.3 | 7.0 | 0.00 | 0.00 | 0.00 | 88 | 1012.2 |
| 20260507063958 | 50 | 159 | 1.7 | 2.6 | 0.00 | 0.00 | 0.00 | 88 | 1012.2 |
| 20260507063458 | 50 | 115 | 0.9 | 2.6 | 0.00 | 0.00 | 0.00 | 88 | 1012.3 |
| 20260507062958 | 50 | 86 | 1.7 | 2.6 | 0.00 | 0.00 | 0.00 | 88 | 1012.2 |
| 20260507062000 | 50 | 96 | 0.0 | 2.6 | 0.00 | 0.00 | 0.00 | 88 | 1012.2 |
| 20260507060958 | 49 | 81 | 1.7 | 2.6 | 0.00 | 0.00 | 0.00 | 88 | 1012.2 |
| 20260507060458 | 49 | 131 | 0.9 | 2.6 | 0.00 | 0.00 | 0.00 | 88 | 1012.2 |
| 20260507054958 | 48 | 149 | 2.6 | 4.3 | 0.00 | 0.00 | 0.00 | 87 | 1012.2 |
| 20260507054459 | 48 | 144 | 1.7 | 3.5 | 0.00 | 0.00 | 0.00 | 87 | 1012.2 |
| 20260507053457 | 47 | 111 | 1.7 | 2.6 | 0.00 | 0.00 | 0.00 | 87 | 1012.2 |
| 20260507052958 | 47 | 111 | 0.9 | 2.6 | 0.00 | 0.00 | 0.00 | 87 | 1012.0 |
| 20260507052500 | 47 | 119 | 0.9 | 2.6 | 0.00 | 0.00 | 0.00 | 87 | 1012.0 |
| 20260507051958 | 47 | 117 | 0.9 | 1.7 | 0.00 | 0.00 | 0.00 | 87 | 1012.1 |
| 20260507051458 | 47 | 117 | 0.0 | 1.7 | 0.00 | 0.00 | 0.00 | 87 | 1012.1 |
| 20260507050958 | 47 | 66 | 0.0 | 2.6 | 0.00 | 0.00 | 0.00 | 87 | 1012.1 |
| 20260507050457 | 47 | 109 | 0.9 | 2.6 | 0.00 | 0.00 | 0.00 | 87 | 1012.1 |